Total_Precipitation_Accumulation
1.73 1.76 1.69 1.70 1.62 1.84 2.13 2.19 2.09 2.26 2.28 2.06 1.77 1.60 1.52 1.40 1.27 1.31 1.46 1.39 1.28 1.36 1.63 1.74 1.60 1.49 1.39 1.21 1.06 0.99 0.95 0.87 0.83 0.68 0.55 0.52 0.59 0.60 0.53 0.45 0.40 0.35 0.34
2.18 2.22 2.06 1.99 1.86 1.91 2.09 2.21 2.24 2.67 2.52 2.37 1.93 1.73 1.66 1.62 1.52 1.48 1.53 1.67 1.41 1.27 1.38 1.66 1.83 1.79 1.71 1.49 1.30 1.16 1.03 0.94 0.84 0.64 0.52 0.47 0.55 0.64 0.61 0.53 0.44 0.36 0.27
2.29 2.36 2.32 2.18 2.11 2.10 2.23 2.25 2.43 2.66 2.36 2.23 1.94 1.83 1.73 1.60 1.46 1.49 1.64 1.80 1.64 1.42 1.27 1.38 1.66 1.81 1.87 1.86 1.73 1.48 1.21 1.03 0.90 0.69 0.53 0.47 0.51 0.60 0.60 0.59 0.54 0.39 0.27
2.32 2.39 2.19 2.06 2.31 2.40 2.44 2.53 2.59 2.62 2.46 2.38 2.17 1.84 1.72 1.65 1.32 1.33 1.38 1.40 1.51 1.34 1.42 1.55 1.68 1.75 1.92 2.04 2.05 1.98 1.69 1.33 1.09 0.89 0.70 0.59 0.60 0.62 0.57 0.55 0.54 0.42 0.30
2.15 2.29 2.11 2.15 2.38 2.47 2.45 2.27 2.57 2.54 2.49 2.40 2.04 1.76 1.51 1.35 1.23 1.09 1.07 1.00 1.13 1.17 1.24 1.38 1.53 1.55 1.82 2.13 2.27 2.36 2.25 1.90 1.47 1.21 1.08 0.91 0.80 0.70 0.61 0.58 0.54 0.47 0.36
2.19 2.31 2.17 2.24 2.38 2.44 2.38 2.38 2.51 2.54 2.37 2.33 1.87 1.55 1.33 1.08 1.07 1.02 0.87 0.90 0.92 0.89 0.93 1.12 1.41 1.24 1.56 1.88 2.03 2.36 2.57 2.43 2.03 1.69 1.52 1.39 1.23 1.01 0.78 0.70 0.66 0.59 0.47
2.23 2.38 2.25 2.39 2.39 2.22 2.21 2.36 2.49 2.36 2.14 2.30 2.06 1.47 1.07 0.87 0.88 0.83 0.84 0.91 0.87 0.87 0.99 1.23 1.35 1.28 1.24 1.36 1.42 1.72 2.23 2.58 2.51 2.17 1.87 1.68 1.63 1.51 1.12 0.98 0.91 0.81 0.69
2.09 2.06 2.09 2.06 2.09 2.14 2.15 2.21 2.37 2.17 1.83 2.04 2.02 1.74 1.16 0.91 0.78 0.68 0.81 0.84 0.84 0.94 1.02 1.16 1.41 1.54 1.42 1.54 1.30 1.27 1.78 2.37 2.66 2.64 2.31 2.03 1.92 1.83 1.51 1.37 1.18 0.96 0.83
1.72 1.71 1.72 1.84 2.05 2.15 2.11 2.13 2.15 2.02 1.70 1.71 1.86 1.93 1.42 1.05 0.83 0.58 0.62 0.75 0.91 1.08 1.08 1.25 1.38 1.51 1.58 1.74 1.76 1.57 1.48 1.65 2.14 2.70 2.69 2.39 2.09 1.87 1.88 1.90 1.69 1.29 1.00
1.52 1.48 1.50 1.54 1.62 1.70 1.74 1.66 1.77 1.89 1.84 1.65 1.74 1.78 1.63 1.44 1.26 0.83 0.65 0.69 0.87 0.99 1.09 1.11 1.14 1.23 1.51 1.85 1.97 1.76 1.50 1.35 1.50 2.18 2.68 2.70 2.36 2.07 2.05 2.18 2.31 1.97 1.40
1.37 1.33 1.28 1.26 1.23 1.29 1.42 1.45 1.55 1.60 1.64 1.61 1.64 1.71 1.67 1.63 1.58 1.38 1.00 0.95 0.93 0.84 0.92 1.01 1.05 1.10 1.38 1.64 1.79 1.71 1.69 1.49 1.44 1.59 1.96 2.29 2.35 2.26 2.17 2.29 2.64 2.66 2.26
1.11 1.08 1.09 1.12 1.12 1.16 1.25 1.33 1.40 1.36 1.44 1.49 1.52 1.60 1.66 1.64 1.67 1.67 1.35 1.20 1.09 0.93 0.95 0.92 0.93 1.00 1.22 1.40 1.35 1.46 1.47 1.33 1.25 1.30 1.44 1.71 1.87 1.99 2.07 2.27 2.64 2.94 2.94
0.79 0.82 0.81 0.91 0.95 1.04 1.07 1.08 1.16 1.26 1.39 1.47 1.48 1.54 1.57 1.55 1.55 1.61 1.55 1.31 1.19 1.06 1.08 1.02 0.91 0.96 0.97 1.25 1.25 1.15 1.01 0.93 0.90 0.93 0.94 1.09 1.30 1.45 1.62 1.85 2.18 2.51 2.76
0.61 0.66 0.74 0.87 0.95 0.98 0.99 1.02 1.02 1.08 1.23 1.36 1.44 1.61 1.53 1.43 1.46 1.53 1.62 1.58 1.38 1.22 1.23 1.10 0.98 0.92 0.95 1.06 1.03 0.90 0.82 0.74 0.71 0.69 0.67 0.69 0.78 0.90 1.05 1.26 1.52 1.74 1.94
0.58 0.60 0.69 0.80 0.92 1.03 1.06 1.05 1.05 1.14 1.28 1.36 1.49 1.58 1.51 1.48 1.50 1.50 1.61 1.70 1.64 1.45 1.26 1.18 1.08 0.95 0.92 0.91 0.88 0.87 0.84 0.75 0.65 0.60 0.56 0.54 0.57 0.60 0.69 0.85 1.02 1.19 1.30
0.52 0.57 0.65 0.72 0.74 0.79 0.85 0.87 0.95 1.07 1.22 1.29 1.30 1.36 1.42 1.45 1.58 1.54 1.60 1.68 1.73 1.64 1.34 1.26 1.18 0.97 1.03 0.81 0.78 0.81 0.82 0.72 0.57 0.51 0.49 0.49 0.51 0.54 0.56 0.62 0.73 0.87 1.03
0.46 0.51 0.56 0.56 0.57 0.57 0.60 0.65 0.76 0.91 0.98 1.00 0.98 1.02 1.07 1.16 1.30 1.34 1.42 1.49 1.61 1.66 1.40 1.35 1.48 1.36 1.32 1.10 0.93 0.86 0.72 0.68 0.61 0.51 0.45 0.43 0.44 0.48 0.54 0.56 0.57 0.63 0.75
0.40 0.43 0.45 0.46 0.45 0.47 0.55 0.61 0.68 0.76 0.84 0.83 0.83 0.85 0.82 0.91 1.07 1.13 1.22 1.33 1.50 1.69 1.54 1.46 1.61 1.65 1.56 1.37 1.24 1.06 0.79 0.64 0.67 0.63 0.48 0.42 0.41 0.44 0.51 0.55 0.52 0.52 0.57
0.35 0.37 0.40 0.44 0.47 0.54 0.65 0.76 0.82 0.79 0.71 0.65 0.61 0.60 0.60 0.68 0.81 0.94 1.08 1.14 1.26 1.57 1.64 1.52 1.56 1.81 1.79 1.62 1.57 1.31 1.12 1.01 0.75 0.69 0.56 0.46 0.43 0.43 0.48 0.56 0.57 0.54 0.52
0.40 0.45 0.48 0.54 0.61 0.64 0.67 0.72 0.74 0.77 0.72 0.62 0.50 0.43 0.42 0.52 0.65 0.78 0.88 0.99 1.10 1.27 1.47 1.54 1.54 1.76 1.86 1.76 1.85 1.65 1.41 1.25 1.02 0.80 0.71 0.53 0.47 0.49 0.49 0.52 0.57 0.60 0.61
0.34 0.47 0.54 0.59 0.67 0.64 0.59 0.59 0.59 0.54 0.55 0.56 0.50 0.40 0.36 0.39 0.46 0.58 0.63 0.76 0.92 1.06 1.18 1.36 1.48 1.64 1.86 1.87 1.75 1.73 1.56 1.40 1.30 1.18 1.14 0.82 0.55 0.48 0.48 0.50 0.56 0.64 0.71
0.32 0.40 0.42 0.48 0.53 0.47 0.41 0.39 0.40 0.42 0.44 0.47 0.48 0.44 0.38 0.34 0.34 0.38 0.44 0.52 0.61 0.72 0.90 1.12 1.25 1.39 1.63 1.83 1.81 1.83 1.75 1.52 1.40 1.33 1.40 1.41 1.08 0.82 0.66 0.47 0.47 0.56 0.70
0.39 0.43 0.42 0.41 0.44 0.48 0.40 0.33 0.30 0.32 0.38 0.42 0.45 0.45 0.34 0.28 0.30 0.30 0.31 0.35 0.43 0.44 0.53 0.76 0.92 0.98 1.14 1.43 1.74 1.87 1.94 1.79 1.60 1.57 1.58 1.69 1.77 1.51 1.03 0.71 0.62 0.54 0.62
0.54 0.56 0.49 0.47 0.48 0.47 0.41 0.32 0.28 0.28 0.33 0.40 0.44 0.42 0.38 0.33 0.33 0.36 0.39 0.39 0.36 0.34 0.35 0.40 0.51 0.70 0.85 1.09 1.45 1.66 1.90 2.07 1.96 1.87 1.82 1.91 1.99 2.20 1.76 1.20 0.96 0.75 0.70
0.61 0.62 0.56 0.53 0.53 0.51 0.41 0.32 0.30 0.36 0.40 0.42 0.44 0.42 0.40 0.38 0.34 0.28 0.35 0.39 0.35 0.34 0.31 0.34 0.39 0.53 0.72 0.85 1.14 1.48 1.73 1.85 1.92 1.99 1.99 2.05 2.05 2.18 2.51 2.09 1.41 1.01 0.79
0.67 0.63 0.60 0.62 0.62 0.61 0.50 0.37 0.35 0.40 0.47 0.49 0.57 0.56 0.43 0.34 0.32 0.28 0.30 0.36 0.36 0.34 0.36 0.35 0.39 0.44 0.53 0.67 0.87 1.14 1.35 1.52 1.57 1.71 1.66 1.61 1.64 1.77 2.23 2.54 2.20 1.57 1.11